Location: ???????
(55.4362°N, 38.1183°E)
Time: 18:11:38
(UTC+00:00)

Cosmos 1441 Rocket - Pass Details

Date: 17 June 2021
Orbit: 495 x 539 km, 81.1° (Epoch: 30 July)

Event Time Altitude Azimuth Distance (km) Brightness Sun altitude
Exits shadow 21:03:13 16° 179° (S) 1,399 4.7 -11.0°
Maximum altitude 21:06:08 63° 101° (E) 583 3.3 -11.0°
Drops below altitude 10° 21:09:56 10° 20° (NNE) 1,747 7.0 -11.1°
Sets 21:12:04 0° 17° (NNE) 2,631 8.3 -11.1°
